Location: Staunton
(38.1490°N, 79.0720°W)
Time: 11:30:35
(UTC-04:00)

ISS - Pass Details

Date: 28 May 2020
Orbit: 417 x 420 km, 51.6° (Epoch: 26 May)

Event Time Altitude Azimuth Distance (km) Brightness Sun altitude
Rises 23:23:07 0° 312° (NW) 2,364 1.2 -24.8°
Reaches altitude 10° 23:25:14 10° 316° (NW) 1,498 0.0 -25.0°
Enters shadow 23:27:16 32° 330° (NNW) 734 -2.0 -25.2°
